Weather History for KMSP - October, 2012

Change the Weather History Date:

Saturday, October 6, 2012

  Actual Average Record
Temperature  
Mean Temperature 39 °F 53 °F  
Max Temperature 45 °F 63 °F 87 °F (2007)
Min Temperature 33 °F 43 °F 25 °F (1873)
Degree Days  
Heating Degree Days 26 12  
Month to date heating degree days 72 68  
Since 1 July heating degree days 197 241  
Cooling Degree Days 0 0  
Month to date cooling degree days 0 3  
Year to date cooling degree days 1131 750  
Moisture  
Dew Point 25 °F    
Average Humidity 57    
Maximum Humidity 75    
Minimum Humidity 39    
Precipitation  
Precipitation 0.00 in 0.09 in 1.69 in (1941)
Month to date precipitation 0.00 0.58  
Year to date precipitation 26.02 25.83  
Snow  
Snow 0.00 in 0.00 in T in (2005)
Month to date snowfall 0.0 0.0  
Since 1 July snowfall T T  
Since 1 September snowfall 0.0 T  
Snow Depth 0.00 in    
Sea Level Pressure  
Sea Level Pressure 30.24 in    
Wind  
Wind Speed 9 mph (NW)    
Max Wind Speed 18 mph    
Max Gust Speed 25 mph    
Visibility 10 miles    
Events      
T = Trace of Precipitation, MM = Missing Value Source: NWS Daily Summary

Daily Weather History Graph

Daily Weather History Graph

Search for Another Location

Airport or City:

Trip Planner

Search our weather history database for the weather conditions in past years. The results will help you decide how hot, cold, wet, or windy it might be!

Date:

Astronomy

Oct. 06, 2012 Rise Set
Actual Time 7:17 AM CDT 6:43 PM CDT
Civil Twilight 6:48 AM CDT 7:12 PM CDT
Nautical Twilight 6:14 AM CDT 7:46 PM CDT
Astronomical Twilight 5:40 AM CDT 8:20 PM CDT
Moon 10:47 PM CDT (10/6) 1:24 PM CDT (10/6)
Length of Visible Light 12h 24m
Length of Day
11h 25m
Waning Gibbous, 65% of the Moon is Illuminated
Oct 6
Waning Gibbous
Oct 8
Last Quarter
Oct 15
New
Oct 21
First Quarter
Oct 29
Full

Hourly Weather History & Observations

Time (CDT) Temp. Windchill Dew Point Humidity Pressure Visibility Wind Dir Wind Speed Gust Speed Precip Events Conditions
12:53 AM 37.0 °F 28.9 °F 26.1 °F 65% 30.17 in 10.0 mi WNW 12.7 mph 21.9 mph N/A   Mostly Cloudy
1:53 AM 37.0 °F 28.5 °F 27.0 °F 67% 30.17 in 10.0 mi WNW 13.8 mph 21.9 mph N/A   Mostly Cloudy
2:49 AM 37.4 °F 29.3 °F 28.4 °F 70% 30.15 in 10.0 mi WNW 12.7 mph 18.4 mph N/A   Overcast
2:53 AM 37.0 °F 28.9 °F 28.0 °F 70% 30.17 in 10.0 mi WNW 12.7 mph - N/A   Overcast
3:05 AM 37.4 °F 29.8 °F 28.4 °F 70% 30.15 in 10.0 mi WNW 11.5 mph - N/A   Overcast
3:53 AM 37.0 °F 27.7 °F 28.9 °F 73% 30.17 in 10.0 mi NW 16.1 mph 21.9 mph N/A   Overcast
4:53 AM 37.0 °F 28.9 °F 28.9 °F 73% 30.19 in 10.0 mi NW 12.7 mph 21.9 mph N/A   Mostly Cloudy
5:50 AM 37.4 °F 28.5 °F 28.4 °F 70% 30.18 in 10.0 mi NW 15.0 mph - N/A   Overcast
5:53 AM 37.0 °F 28.1 °F 28.9 °F 73% 30.20 in 10.0 mi NNW 15.0 mph 21.9 mph N/A   Overcast
6:30 AM 35.6 °F 27.5 °F 28.4 °F 75% 30.20 in 10.0 mi NW 11.5 mph - N/A   Overcast
6:53 AM 36.0 °F 28.5 °F 28.9 °F 76% 30.23 in 10.0 mi NW 10.4 mph - N/A   Overcast
7:53 AM 36.0 °F 26.7 °F 28.9 °F 76% 30.25 in 10.0 mi NNW 15.0 mph 20.7 mph N/A   Mostly Cloudy
8:04 AM 35.6 °F 28.0 °F 28.4 °F 75% 30.23 in 10.0 mi NNW 10.4 mph - N/A   Mostly Cloudy
8:16 AM 37.4 °F 28.9 °F 28.4 °F 70% 30.24 in 10.0 mi NW 13.8 mph 19.6 mph N/A   Mostly Cloudy
8:53 AM 37.0 °F 29.3 °F 28.9 °F 73% 30.27 in 10.0 mi NNW 11.5 mph - N/A   Mostly Cloudy
9:53 AM 37.9 °F 30.0 °F 27.0 °F 65% 30.29 in 10.0 mi North 12.7 mph - N/A   Mostly Cloudy
10:00 AM 37.4 °F 30.8 °F 26.6 °F 65% 30.27 in 10.0 mi NNW 9.2 mph - N/A   Mostly Cloudy
10:53 AM 39.0 °F 30.6 °F 25.0 °F 57% 30.30 in 10.0 mi NNW 15.0 mph 20.7 mph N/A   Overcast
11:53 AM 37.9 °F 30.5 °F 25.0 °F 60% 30.30 in 10.0 mi NNW 11.5 mph 24.2 mph N/A   Overcast
12:53 PM 42.1 °F 36.6 °F 21.9 °F 45% 30.30 in 10.0 mi NNW 9.2 mph - N/A   Overcast
1:53 PM 43.0 °F 37.2 °F 21.0 °F 42% 30.29 in 10.0 mi North 10.4 mph - N/A   Overcast
2:53 PM 42.1 °F 36.6 °F 21.0 °F 43% 30.27 in 10.0 mi NW 9.2 mph - N/A   Overcast
3:53 PM 43.0 °F 37.7 °F 19.9 °F 40% 30.26 in 10.0 mi WNW 9.2 mph - N/A   Overcast
4:53 PM 43.0 °F 36.8 °F 21.0 °F 42% 30.25 in 10.0 mi North 11.5 mph 19.6 mph N/A   Overcast
5:53 PM 42.8 °F 38.0 °F 19.4 °F 39% 30.23 in 10.0 mi North 8.1 mph - N/A   Overcast
6:53 PM 42.1 °F 39.2 °F 19.9 °F 41% 30.26 in 10.0 mi North 4.6 mph - N/A   Overcast
7:53 PM 41.0 °F 39.0 °F 19.9 °F 43% 30.27 in 10.0 mi WNW 3.5 mph - N/A   Mostly Cloudy
8:53 PM 41.0 °F 39.0 °F 23.0 °F 49% 30.27 in 10.0 mi West 3.5 mph - N/A   Overcast
9:53 PM 39.9 °F 37.8 °F 23.0 °F 51% 30.27 in 10.0 mi WSW 3.5 mph - N/A   Mostly Cloudy
10:53 PM 37.9 °F - 25.0 °F 60% 30.26 in 10.0 mi Calm Calm - N/A   Partly Cloudy
11:53 PM 35.6 °F 32.8 °F 24.8 °F 65% 30.23 in 10.0 mi WSW 3.5 mph - N/A   Partly Cloudy